Location: Canazei
(46.4667°N, 11.7667°E)
Time: 06:48:06
(UTC+00:00)

Cosmos 1943 Rocket - Pass Details

Date: 21 April 2021
Orbit: 812 x 843 km, 71.0° (Epoch: 15 May)

Event Time Altitude Azimuth Distance (km) Brightness Sun altitude
Exits shadow 01:29:14 21° 147° (SSE) 1,791 3.7 -24.0°
Maximum altitude 01:31:49 31° 104° (ESE) 1,446 3.6 -23.7°
Drops below altitude 10° 01:36:42 10° 45° (NE) 2,463 5.7 -23.2°
Sets 01:39:23 0° 35° (NE) 3,398 6.8 -22.9°
